KK7MLS-13 Weather Reports


Display with metric or nautical units.
time (UTC)temp
F
wind
direction
speed
MPH
gust
MPH
rain 1hr
in
rain 24hr
in
rain mn
in
humidity
%
barometer
mb
20260505153232 56 42 0.0 0.0 0.00 0.00 0.00 82 1016.3
20260505152730 56 51 0.0 1.0 0.00 0.00 0.00 81 1016.5
20260505152226 55 27 0.0 1.0 0.00 0.00 0.00 82 1016.5
20260505151726 55 148 0.0 0.0 0.00 0.00 0.00 83 1016.5
20260505151224 55 209 0.0 1.0 0.00 0.00 0.00 83 1016.5
20260505150720 55 268 0.0 1.0 0.00 0.00 0.00 84 1016.4
20260505150217 54 214 0.0 1.0 0.00 0.00 0.00 84 1016.4
20260505140645 53 250 0.0 0.0 0.00 0.00 0.00 86 1015.9
20260505140142 53 335 0.0 0.0 0.00 0.00 0.00 87 1015.7
20260505130106 53 229 0.0 0.0 0.00 0.00 0.00 87 1015.6
20260505124555 53 267 0.0 0.0 0.00 0.00 0.00 87 1015.4
20260505124051 53 158 0.0 0.0 0.00 0.00 0.00 87 1015.5
20260505123548 53 348 0.0 0.0 0.00 0.00 0.00 87 1015.3
20260505123044 53 346 0.0 0.0 0.00 0.00 0.00 87 1015.5
20260505122541 53 345 0.0 1.0 0.00 0.00 0.00 87 1015.4
20260505122038 53 330 0.0 0.0 0.00 0.00 0.00 87 1015.5
20260505121535 53 330 0.0 0.0 0.00 0.00 0.00 87 1015.5
20260505121032 53 322 0.0 1.0 0.00 0.00 0.00 87 1015.4
20260505120528 53 294 0.0 0.0 0.00 0.00 0.00 87 1015.3
20260505120023 53 291 0.0 0.0 0.00 0.00 0.00 87 1015.3
20260505115518 53 291 0.0 0.0 0.00 0.00 0.00 87 1015.2
20260505115016 53 231 0.0 0.0 0.00 0.00 0.00 87 1015.4
20260505114513 53 166 0.0 0.0 0.00 0.00 0.00 88 1015.3
20260505114009 53 291 0.0 0.0 0.00 0.00 0.00 88 1015.4
20260505113506 53 291 0.0 0.0 0.00 0.00 0.00 87 1015.2
20260505113002 53 231 0.0 0.0 0.00 0.00 0.00 88 1015.4
20260505112459 53 265 0.0 0.0 0.00 0.00 0.00 88 1015.3
20260505111956 53 322 0.0 0.0 0.00 0.00 0.00 88 1015.4
20260505111456 53 268 0.0 0.0 0.00 0.00 0.00 88 1015.2
20260505110953 53 277 0.0 0.0 0.00 0.00 0.00 88 1015.2
20260505110449 53 306 0.0 0.0 0.00 0.00 0.00 88 1015.0
20260505101920 52 272 0.0 0.0 0.00 0.00 0.00 90 1014.6
20260505101415 52 272 0.0 0.0 0.00 0.00 0.00 90 1014.7
20260505100911 51 335 0.0 0.0 0.00 0.00 0.00 90 1014.8
20260505100408 51 335 0.0 0.0 0.00 0.00 0.00 90 1014.6
20260505095903 51 335 0.0 0.0 0.00 0.00 0.00 91 1014.7
20260505095401 51 293 0.0 0.0 0.00 0.00 0.00 91 1014.7
20260505094857 51 286 0.0 1.0 0.00 0.00 0.00 91 1014.8
20260505094354 51 52 0.0 0.0 0.00 0.00 0.00 90 1014.7
20260505093849 51 52 0.0 0.0 0.00 0.00 0.00 90 1014.5
20260505093347 51 52 0.0 0.0 0.00 0.00 0.00 89 1014.5
20260505092844 51 52 0.0 0.0 0.00 0.00 0.00 89 1014.5
20260505092342 51 52 0.0 0.0 0.00 0.00 0.00 89 1014.6
20260505091839 52 52 0.0 0.0 0.00 0.00 0.00 88 1014.7
20260505091337 52 52 0.0 0.0 0.00 0.00 0.00 88 1014.4
20260505090835 52 26 0.0 0.0 0.00 0.00 0.00 87 1014.5
20260505090333 52 26 0.0 0.0 0.00 0.00 0.00 87 1014.5
20260505085830 52 69 0.0 0.0 0.00 0.00 0.00 87 1014.4
20260505085328 53 69 0.0 0.0 0.00 0.00 0.00 86 1014.3
20260505084825 53 349 0.0 0.0 0.00 0.00 0.00 86 1014.3
20260505084324 53 312 0.0 0.0 0.00 0.00 0.00 86 1014.4
20260505083820 53 53 0.0 0.0 0.00 0.00 0.00 85 1014.3
20260505083318 53 59 0.0 0.0 0.00 0.00 0.00 85 1014.4
20260505082814 53 274 0.0 0.0 0.00 0.00 0.00 85 1014.4
20260505082311 54 277 0.0 1.0 0.00 0.00 0.00 84 1014.4
20260505081807 54 295 0.0 1.0 0.00 0.00 0.00 84 1014.3
20260505081304 54 328 0.0 1.0 0.00 0.00 0.00 84 1014.3
20260505080801 54 348 0.0 0.0 0.00 0.00 0.00 85 1014.2
20260505080256 54 13 0.0 0.0 0.00 0.00 0.00 85 1014.2
20260505075752 54 62 0.0 0.0 0.00 0.00 0.00 85 1014.1
20260505075250 54 46 0.0 0.0 0.00 0.00 0.00 84 1014.1
20260505074747 54 46 0.0 0.0 0.00 0.00 0.00 84 1014.0
20260505074244 54 47 0.0 0.0 0.00 0.00 0.00 83 1014.0
20260505073741 54 58 0.0 0.0 0.00 0.00 0.00 82 1013.9
20260505073239 55 304 1.0 1.0 0.00 0.00 0.00 82 1013.6
20260505072735 55 311 0.0 1.0 0.00 0.00 0.00 82 1013.9
20260505072231 55 270 0.0 1.0 0.00 0.00 0.00 81 1013.6
20260505071727 55 281 0.0 3.0 0.00 0.00 0.00 80 1013.8
20260505071225 56 219 0.0 1.0 0.00 0.00 0.00 80 1013.6
20260505070722 56 11 0.0 2.0 0.00 0.00 0.00 80 1013.5
20260505070218 56 87 0.0 1.0 0.00 0.00 0.00 80 1013.6
20260505065714 56 96 0.0 0.0 0.00 0.00 0.00 80 1013.4
20260505065211 56 25 0.0 0.0 0.00 0.00 0.00 80 1013.4
20260505064708 56 282 0.0 1.0 0.00 0.00 0.00 80 1013.4
20260505064206 56 293 1.0 1.0 0.00 0.00 0.00 80 1013.4
20260505063703 56 26 0.0 0.0 0.00 0.00 0.00 80 1013.4
20260505063159 56 287 0.0 0.0 0.00 0.00 0.00 79 1013.3
20260505062655 57 281 1.0 1.0 0.00 0.00 0.00 79 1013.2
20260505062153 57 309 0.0 1.0 0.00 0.00 0.00 79 1012.9
20260505061650 57 330 0.0 0.0 0.00 0.00 0.00 79 1013.1
20260505061148 57 182 0.0 0.0 0.00 0.00 0.00 78 1013.1
20260505060645 57 75 0.0 1.0 0.00 0.00 0.00 78 1012.9
20260505060142 58 309 0.0 0.0 0.00 0.00 0.00 78 1013.0
20260505055637 58 279 0.0 0.0 0.00 0.00 0.00 78 1012.9
20260505055134 58 270 0.0 0.0 0.00 0.00 0.00 77 1013.0
20260505054632 59 270 0.0 0.0 0.00 0.00 0.00 77 1012.8
20260505054130 59 288 0.0 1.0 0.00 0.00 0.00 76 1012.8
20260505053627 59 210 0.0 1.0 0.00 0.00 0.00 76 1012.8
20260505053123 60 295 0.0 0.0 0.00 0.00 0.00 76 1012.8
20260505052620 60 282 0.0 0.0 0.00 0.00 0.00 75 1012.6
20260505052118 60 129 0.0 1.0 0.00 0.00 0.00 74 1012.6
20260505051614 61 249 0.0 0.0 0.00 0.00 0.00 74 1012.6
20260505051112 61 264 0.0 1.0 0.00 0.00 0.00 74 1012.5
20260505050610 62 24 0.0 0.0 0.00 0.00 0.00 73 1012.6
20260505050108 62 40 1.0 1.0 0.00 0.00 0.00 72 1012.6
20260505041538 65 35 0.0 0.0 0.00 0.00 0.00 68 1011.7
20260505041035 65 306 0.0 1.0 0.00 0.00 0.00 67 1011.7
20260505040532 65 229 0.0 0.0 0.00 0.00 0.00 67 1011.6
20260505040030 65 287 0.0 1.0 0.00 0.00 0.00 67 1011.5
20260505035525 65 307 0.0 0.0 0.00 0.00 0.00 67 1011.7
20260505035022 66 161 0.0 1.0 0.00 0.00 0.00 67 1011.6
20260505034519 66 241 0.0 0.0 0.00 0.00 0.00 67 1011.4
20260505034016 66 60 0.0 0.0 0.00 0.00 0.00 66 1011.3
20260505033513 67 304 1.0 2.0 0.00 0.00 0.00 66 1011.3
20260505033011 67 120 0.0 0.0 0.00 0.00 0.00 66 1011.3
20260505032508 67 236 0.0 0.0 0.00 0.00 0.00 65 1011.2
20260505032004 68 169 1.0 2.0 0.00 0.00 0.00 65 1011.2
20260505031501 68 43 0.0 2.0 0.00 0.00 0.00 65 1011.0
20260505030958 68 164 0.0 1.0 0.00 0.00 0.00 65 1010.9
20260505030455 69 271 1.0 3.0 0.00 0.00 0.00 64 1010.8
20260505025950 69 175 1.0 2.0 0.00 0.00 0.00 64 1010.8
20260505025447 69 297 2.0 2.0 0.00 0.00 0.00 65 1010.9
20260505024946 70 107 0.0 1.0 0.00 0.00 0.00 65 1010.8
20260505024443 70 180 1.0 2.0 0.00 0.00 0.00 64 1010.7
20260505023940 70 191 0.0 2.0 0.00 0.00 0.00 64 1010.6
20260505023437 71 275 1.0 2.0 0.00 0.00 0.00 63 1010.8
20260505022934 71 150 0.0 1.0 0.00 0.00 0.00 64 1010.7
20260505022432 71 138 1.0 2.0 0.00 0.00 0.00 63 1010.6
20260505021929 71 72 0.0 1.0 0.00 0.00 0.00 62 1010.7
20260505021425 72 260 1.0 2.0 0.00 0.00 0.00 61 1010.6
20260505020920 72 275 1.0 1.0 0.00 0.00 0.00 60 1010.7
20260505020416 73 157 0.0 2.0 0.00 0.00 0.00 60 1010.9
20260505015914 73 154 1.0 1.0 0.00 0.00 0.00 59 1010.7
20260505015411 73 266 0.0 1.0 0.00 0.00 0.00 59 1010.5
20260505014908 74 268 1.0 2.0 0.00 0.00 0.00 58 1010.6
20260505014405 76 272 3.0 4.0 0.00 0.00 0.00 55 1010.7
20260505013901 77 290 1.0 2.0 0.00 0.00 0.00 54 1010.7
20260505013358 77 301 1.0 4.0 0.00 0.00 0.00 52 1010.8
20260505012857 77 337 1.0 2.0 0.00 0.00 0.00 53 1010.8
20260505012354 78 318 1.0 2.0 0.00 0.00 0.00 53 1010.7
20260505011850 78 284 1.0 2.0 0.00 0.00 0.00 51 1010.7
20260505011347 78 258 0.0 2.0 0.00 0.00 0.00 52 1010.8
20260505010843 78 290 0.0 1.0 0.00 0.00 0.00 52 1010.8
20260505010339 76 57 1.0 2.0 0.00 0.00 0.00 54 1010.9
20260505005836 78 261 3.0 4.0 0.00 0.00 0.00 52 1011.0
20260505005332 80 253 4.0 4.0 0.00 0.00 0.00 48 1011.1
20260505004830 79 224 0.0 1.0 0.00 0.00 0.00 52 1011.2
20260505004326 78 68 1.0 2.0 0.00 0.00 0.00 51 1010.8
20260505003824 79 293 1.0 2.0 0.00 0.00 0.00 49 1011.0
20260505003321 79 159 1.0 2.0 0.00 0.00 0.00 50 1011.1
20260505002817 79 45 0.0 0.0 0.00 0.00 0.00 50 1011.0
20260505002314 79 166 2.0 2.0 0.00 0.00 0.00 51 1011.2
20260505001812 79 269 0.0 3.0 0.00 0.00 0.00 52 1011.2
20260505001309 80 300 2.0 2.0 0.00 0.00 0.00 48 1011.2
20260505000806 80 286 0.0 1.0 0.00 0.00 0.00 50 1011.1
20260505000304 78 273 0.0 1.0 0.00 0.00 0.00 54 1011.3
20260504235800 77 251 0.0 3.0 0.00 0.00 0.00 51 1011.2
20260504235256 78 246 2.0 4.0 0.00 0.00 0.00 50 1011.2
20260504234754 79 30 1.0 3.0 0.00 0.00 0.00 49 1011.2
20260504234251 78 294 2.0 3.0 0.00 0.00 0.00 51 1011.3
20260504233747 77 301 0.0 1.0 0.00 0.00 0.00 55 1011.3
20260504233243 78 286 1.0 3.0 0.00 0.00 0.00 50 1011.4
20260504232740 79 249 0.0 4.0 0.00 0.00 0.00 50 1011.5
20260504232237 80 279 1.0 2.0 0.00 0.00 0.00 49 1011.6
20260504231734 80 276 1.0 3.0 0.00 0.00 0.00 48 1011.5
20260504231231 78 189 1.0 1.0 0.00 0.00 0.00 50 1011.4
20260504230726 78 52 1.0 2.0 0.00 0.00 0.00 52 1011.6
20260504230226 79 275 3.0 4.0 0.00 0.00 0.00 48 1011.6
20260504225724 78 324 1.0 1.0 0.00 0.00 0.00 51 1011.6
20260504225220 78 265 2.0 3.0 0.00 0.00 0.00 49 1011.8
20260504224717 78 128 1.0 4.0 0.00 0.00 0.00 50 1011.9
20260504224214 78 12 1.0 3.0 0.00 0.00 0.00 51 1011.8
20260504223710 77 274 1.0 2.0 0.00 0.00 0.00 50 1011.8
20260504223206 78 280 2.0 2.0 0.00 0.00 0.00 49 1012.0
20260504222703 77 285 1.0 2.0 0.00 0.00 0.00 52 1011.9
20260504222200 77 217 0.0 2.0 0.00 0.00 0.00 51 1011.9
20260504221657 76 71 1.0 2.0 0.00 0.00 0.00 51 1012.1
20260504221155 75 140 1.0 2.0 0.00 0.00 0.00 53 1012.1
20260504220650 76 262 1.0 2.0 0.00 0.00 0.00 51 1012.3
20260504220149 75 338 1.0 1.0 0.00 0.00 0.00 54 1012.4
20260504215644 75 226 3.0 4.0 0.00 0.00 0.00 51 1012.2
20260504215142 75 50 1.0 2.0 0.00 0.00 0.00 52 1012.4
20260504214637 75 278 1.0 2.0 0.00 0.00 0.00 53 1012.5
20260504214134 75 260 0.0 2.0 0.00 0.00 0.00 53 1012.5
20260504213631 75 274 0.0 2.0 0.00 0.00 0.00 51 1012.6
20260504213127 75 197 0.0 2.0 0.00 0.00 0.00 52 1012.7
20260504212624 73 243 0.0 2.0 0.00 0.00 0.00 57 1012.6
20260504212121 72 276 1.0 3.0 0.00 0.00 0.00 54 1012.7
20260504211619 72 193 0.0 4.0 0.00 0.00 0.00 55 1012.9
20260504211115 72 250 1.0 1.0 0.00 0.00 0.00 59 1012.9
20260504210613 71 272 1.0 6.0 0.00 0.00 0.00 56 1012.9
20260504210109 71 298 2.0 2.0 0.00 0.00 0.00 57 1013.0
20260504205606 70 267 1.0 3.0 0.00 0.00 0.00 57 1013.1
20260504205104 69 257 0.0 3.0 0.00 0.00 0.00 59 1013.3
20260504204602 69 269 2.0 3.0 0.00 0.00 0.00 61 1013.2
20260504204101 68 315 2.0 3.0 0.00 0.00 0.00 61 1013.4
20260504203559 69 270 2.0 2.0 0.00 0.00 0.00 61 1013.2
20260504203056 69 282 1.0 1.0 0.00 0.00 0.00 61 1013.4
20260504202551 68 179 0.0 1.0 0.00 0.00 0.00 64 1013.4
20260504202048 69 244 2.0 2.0 0.00 0.00 0.00 60 1013.4
20260504201545 68 159 1.0 1.0 0.00 0.00 0.00 64 1013.5
20260504201043 68 263 1.0 3.0 0.00 0.00 0.00 61 1013.7
20260504200539 68 266 0.0 2.0 0.00 0.00 0.00 64 1013.6
20260504200036 67 292 3.0 4.0 0.00 0.00 0.00 62 1013.6
20260504195532 68 302 2.0 4.0 0.00 0.00 0.00 60 1013.9
20260504195029 66 169 1.0 1.0 0.00 0.00 0.00 66 1013.7
20260504194525 67 264 2.0 4.0 0.00 0.00 0.00 62 1013.7
20260504194021 66 189 1.0 8.0 0.00 0.00 0.00 67 1013.8
20260504193518 64 39 0.0 4.0 0.00 0.00 0.00 69 1013.9
20260504193017 63 295 1.0 2.0 0.00 0.00 0.00 72 1013.8
20260504192514 63 281 2.0 4.0 0.00 0.00 0.00 69 1014.1
20260504192012 62 258 0.0 3.0 0.00 0.00 0.00 71 1013.8
20260504191510 62 232 0.0 3.0 0.00 0.00 0.00 71 1013.9
20260504191006 62 267 0.0 1.0 0.00 0.00 0.00 71 1013.9
20260504190501 62 103 0.0 1.0 0.00 0.00 0.00 72 1014.1
20260504185957 61 273 1.0 2.0 0.00 0.00 0.00 73 1014.0
20260504185455 61 214 1.0 2.0 0.00 0.00 0.00 74 1014.1
20260504184951 60 291 1.0 2.0 0.00 0.00 0.00 74 1014.2
20260504184447 60 232 1.0 3.0 0.00 0.00 0.00 75 1014.2
20260504183943 59 200 0.0 3.0 0.00 0.00 0.00 76 1014.3
20260504183440 59 212 0.0 3.0 0.00 0.00 0.00 76 1014.1
20260504182938 59 269 0.0 1.0 0.00 0.00 0.00 77 1014.1
20260504182435 58 277 0.0 3.0 0.00 0.00 0.00 78 1014.1
20260504181932 58 267 2.0 6.0 0.00 0.00 0.00 77 1014.2
20260504181429 59 266 1.0 3.0 0.00 0.00 0.00 77 1014.0
20260504180928 59 261 2.0 2.0 0.00 0.00 0.00 76 1014.0
20260504180426 59 196 0.0 1.0 0.00 0.00 0.00 77 1014.1
20260504175924 59 265 0.0 4.0 0.00 0.00 0.00 77 1014.0
20260504175421 59 45 1.0 1.0 0.00 0.00 0.00 78 1014.0
20260504174919 58 217 0.0 2.0 0.00 0.00 0.00 78 1014.0
20260504174416 58 41 0.0 2.0 0.00 0.00 0.00 79 1014.1
20260504173913 57 136 1.0 3.0 0.00 0.00 0.00 79 1014.0
20260504173409 58 308 1.0 2.0 0.00 0.00 0.00 79 1014.1
20260504172907 57 99 1.0 3.0 0.00 0.00 0.00 80 1014.1
20260504172403 57 243 0.0 2.0 0.00 0.00 0.00 80 1014.1
20260504171859 57 257 1.0 1.0 0.00 0.00 0.00 81 1014.0
20260504171356 57 274 2.0 2.0 0.00 0.00 0.00 81 1014.0
20260504170854 57 101 1.0 2.0 0.00 0.00 0.00 82 1014.2
20260504170350 56 288 2.0 2.0 0.00 0.00 0.00 82 1014.0
20260504160309 55 179 0.0 1.0 0.00 0.00 0.00 84 1013.8